Location: Ferchesar
(52.6477°N, 12.4298°E)
Time: 04:32:40
(UTC+01:00)

Vanguard 1 - Pass Details

Date: 14 December 2021
Orbit: 652 x 3830 km, 34.2° (Epoch: 21 January)

Event Time Altitude Azimuth Distance (km) Brightness Sun altitude
Rises 22:14:52 0° 234° (SW) 6,126 14.2 -53.9°
Reaches altitude 10° 22:18:40 10° 228° (SW) 5,487 13.8 -54.3°
Enters shadow 22:21:51 19° 221° (SW) 5,046 13.5 -54.6°
